• In Hungary
  • List of Countries
  • For 7 days
  • Water Temperature
  • Satellite Maps
  • Weather Map
  • News
  • Weather Widgets
  • user-avatar
    Login

    Hourly Weather Gribny

    Today, 19 July, Thursday

    Time Temperature Precipitation Wind Pressure Humidity
    00:00 +18°C° 0.1 mm 3 mps 741 mmHg 92%
    01:00 +18°C° 0.1 mm 3 mps 741 mmHg 92%
    02:00 +18°C° 0 mm 2 mps 740 mmHg 94%
    03:00 +18°C° 0 mm 3 mps 741 mmHg 93%
    04:00 +18°C° 0 mm 3 mps 741 mmHg 92%
    05:00 +18°C° 0 mm 3 mps 741 mmHg 92%
    06:00 +20°C° 0 mm 4 mps 741 mmHg 85%
    07:00 +21°C° 0 mm 4 mps 741 mmHg 78%
    08:00 +23°C° 0 mm 4 mps 741 mmHg 70%
    09:00 +23°C° 0.3 mm 4 mps 741 mmHg 70%
    10:00 +25°C° 0.3 mm 5 mps 740 mmHg 70%
    11:00 +25°C° 0.3 mm 5 mps 740 mmHg 70%
    12:00 +25°C° 0.7 mm 5 mps 740 mmHg 72%
    13:00 +25°C° 0.7 mm 4 mps 740 mmHg 74%
    14:00 +25°C° 0.7 mm 4 mps 740 mmHg 76%
    15:00 +25°C° 0.5 mm 4 mps 740 mmHg 79%
    16:00 +23°C° 0.5 mm 4 mps 740 mmHg 81%
    17:00 +23°C° 0.5 mm 4 mps 740 mmHg 84%
    18:00 +22°C° 0.2 mm 4 mps 740 mmHg 86%
    19:00 +21°C° 0.2 mm 3 mps 740 mmHg 89%
    20:00 +20°C° 0.2 mm 3 mps 740 mmHg 91%
    21:00 +20°C° 0 mm 3 mps 740 mmHg 93%
    22:00 +19°C° 0 mm 3 mps 740 mmHg 95%
    23:00 +19°C° 0 mm 3 mps 740 mmHg 96%

    Tomorrow, 20 July, Friday

    Time Temperature Precipitation Wind Pressure Humidity
    00:00 +19°C° 0 mm 3 mps 740 mmHg 96%
    01:00 +19°C° 0 mm 3 mps 740 mmHg 96%
    02:00 +19°C° 0 mm 3 mps 740 mmHg 96%
    03:00 +19°C° 0.1 mm 3 mps 739 mmHg 96%
    04:00 +19°C° 0.1 mm 3 mps 739 mmHg 96%
    05:00 +19°C° 0.1 mm 3 mps 739 mmHg 96%
    06:00 +19°C° 0.1 mm 3 mps 739 mmHg 95%
    07:00 +19°C° 0.1 mm 3 mps 739 mmHg 95%
    08:00 +20°C° 0.1 mm 3 mps 739 mmHg 94%
    09:00 +20°C° 0.1 mm 3 mps 739 mmHg 92%
    10:00 +20°C° 0.1 mm 3 mps 739 mmHg 90%
    11:00 +21°C° 0.1 mm 3 mps 740 mmHg 88%
    12:00 +21°C° 0.1 mm 3 mps 739 mmHg 88%
    13:00 +21°C° 0.1 mm 3 mps 739 mmHg 88%
    14:00 +21°C° 0.1 mm 3 mps 739 mmHg 89%
    15:00 +21°C° 0.1 mm 3 mps 739 mmHg 89%
    16:00 +21°C° 0.1 mm 3 mps 739 mmHg 90%
    17:00 +21°C° 0.1 mm 3 mps 739 mmHg 90%
    18:00 +21°C° 0.1 mm 3 mps 739 mmHg 91%
    19:00 +21°C° 0.1 mm 3 mps 739 mmHg 93%
    20:00 +20°C° 0.1 mm 3 mps 739 mmHg 94%
    21:00 +20°C° 0.5 mm 3 mps 738 mmHg 95%
    22:00 +20°C° 0.5 mm 3 mps 738 mmHg 96%
    23:00 +19°C° 0.5 mm 3 mps 738 mmHg 97%

    Day after tomorrow, 21 July, Saturday

    Time Temperature Precipitation Wind Pressure Humidity
    00:00 +19°C° 0 mm 3 mps 738 mmHg 97%
    01:00 +19°C° 0 mm 3 mps 738 mmHg 98%
    02:00 +19°C° 0 mm 2 mps 738 mmHg 98%
    03:00 +19°C° 0.3 mm 2 mps 738 mmHg 98%
    04:00 +19°C° 0.3 mm 2 mps 738 mmHg 98%
    05:00 +20°C° 0.3 mm 2 mps 738 mmHg 98%
    06:00 +20°C° 0.2 mm 2 mps 738 mmHg 98%
    07:00 +20°C° 0.2 mm 2 mps 739 mmHg 97%
    08:00 +20°C° 0.2 mm 3 mps 739 mmHg 97%
    09:00 +21°C° 0.1 mm 3 mps 739 mmHg 96%
    10:00 +21°C° 0.1 mm 3 mps 739 mmHg 94%
    11:00 +22°C° 0.1 mm 3 mps 739 mmHg 93%
    12:00 +24°C° 0.1 mm 3 mps 739 mmHg 89%
    13:00 +25°C° 0.1 mm 3 mps 739 mmHg 86%
    14:00 +25°C° 0.1 mm 3 mps 739 mmHg 82%
    15:00 +26°C° 0.4 mm 3 mps 739 mmHg 82%
    16:00 +26°C° 0.4 mm 3 mps 739 mmHg 82%
    17:00 +26°C° 0.4 mm 3 mps 739 mmHg 82%
    18:00 +25°C° 0.3 mm 3 mps 739 mmHg 86%
    19:00 +24°C° 0.3 mm 3 mps 739 mmHg 90%
    20:00 +23°C° 0.3 mm 2 mps 739 mmHg 94%
    21:00 +23°C° 0.3 mm 2 mps 739 mmHg 95%
    22:00 +21°C° 0.3 mm 2 mps 739 mmHg 96%
    23:00 +20°C° 0.2 mm 2 mps 739 mmHg 97%

    22 July, Sunday

    Time Temperature Precipitation Wind Pressure Humidity
    00:00 +20°C° 0 mm 2 mps 739 mmHg 97%
    01:00 +20°C° 0 mm 2 mps 739 mmHg 98%
    02:00 +20°C° 0 mm 2 mps 739 mmHg 98%
    03:00 +20°C° 0.3 mm 3 mps 739 mmHg 98%
    04:00 +20°C° 0.3 mm 3 mps 739 mmHg 98%
    05:00 +20°C° 0.3 mm 3 mps 739 mmHg 98%
    06:00 +20°C° 0.4 mm 3 mps 739 mmHg 97%
    07:00 +20°C° 0.4 mm 3 mps 740 mmHg 96%
    08:00 +21°C° 0.4 mm 3 mps 740 mmHg 96%
    09:00 +21°C° 0 mm 3 mps 740 mmHg 94%
    10:00 +21°C° 0 mm 3 mps 740 mmHg 92%
    11:00 +22°C° 0 mm 3 mps 740 mmHg 90%
    12:00 +22°C° 0 mm 3 mps 739 mmHg 88%
    13:00 +22°C° 0 mm 3 mps 739 mmHg 86%
    14:00 +22°C° 0 mm 3 mps 739 mmHg 83%
    15:00 +22°C° 0 mm 3 mps 739 mmHg 84%
    16:00 +22°C° 0 mm 3 mps 739 mmHg 85%
    17:00 +22°C° 0 mm 3 mps 739 mmHg 86%
    18:00 +21°C° 0 mm 2 mps 739 mmHg 89%
    19:00 +21°C° 0 mm 2 mps 739 mmHg 92%
    20:00 +20°C° 0 mm 2 mps 739 mmHg 96%
    21:00 +20°C° 0.2 mm 2 mps 739 mmHg 96%
    22:00 +20°C° 0.2 mm 2 mps 739 mmHg 97%
    23:00 +20°C° 0.2 mm 2 mps 739 mmHg 98%

    23 July, Monday

    Time Temperature Precipitation Wind Pressure Humidity
    00:00 +20°C° 0.3 mm 2 mps 739 mmHg 98%
    01:00 +20°C° 0.3 mm 2 mps 739 mmHg 98%
    02:00 +20°C° 0.3 mm 2 mps 739 mmHg 98%
    03:00 +20°C° 0.5 mm 2 mps 739 mmHg 98%
    04:00 +20°C° 0.5 mm 3 mps 739 mmHg 98%
    05:00 +20°C° 0.5 mm 3 mps 739 mmHg 98%
    06:00 +20°C° 0 mm 3 mps 739 mmHg 97%
    07:00 +20°C° 0 mm 3 mps 740 mmHg 96%
    08:00 +20°C° 0 mm 3 mps 740 mmHg 96%
    09:00 +21°C° 0 mm 3 mps 740 mmHg 95%
    10:00 +21°C° 0 mm 3 mps 740 mmHg 94%
    11:00 +21°C° 0 mm 2 mps 740 mmHg 93%
    12:00 +22°C° 0.1 mm 3 mps 740 mmHg 92%
    13:00 +22°C° 0.1 mm 3 mps 740 mmHg 92%
    14:00 +22°C° 0.1 mm 3 mps 740 mmHg 91%
    15:00 +22°C° 0.1 mm 3 mps 740 mmHg 91%
    16:00 +22°C° 0.1 mm 3 mps 740 mmHg 91%
    17:00 +23°C° 0.1 mm 2 mps 740 mmHg 91%
    18:00 +23°C° 0 mm 2 mps 740 mmHg 93%
    19:00 +21°C° 0 mm 2 mps 740 mmHg 95%
    20:00 +21°C° 0 mm 2 mps 740 mmHg 96%
    21:00 +20°C° 0 mm 2 mps 740 mmHg 97%
    22:00 +20°C° 0 mm 2 mps 740 mmHg 97%
    23:00 +20°C° 0 mm 2 mps 740 mmHg 98%

    24 July, Tuesday

    Time Temperature Precipitation Wind Pressure Humidity
    00:00 +19°C° 0.1 mm 2 mps 740 mmHg 98%
    01:00 +19°C° 0.1 mm 2 mps 740 mmHg 98%
    02:00 +19°C° 0.1 mm 2 mps 740 mmHg 99%
    03:00 +19°C° 0.1 mm 2 mps 740 mmHg 98%
    04:00 +20°C° 0.1 mm 3 mps 740 mmHg 98%
    05:00 +20°C° 0.1 mm 3 mps 740 mmHg 97%
    06:00 +20°C° 0 mm 3 mps 741 mmHg 97%
    07:00 +20°C° 0 mm 3 mps 741 mmHg 96%
    08:00 +20°C° 0 mm 3 mps 741 mmHg 95%
    09:00 +21°C° 0.1 mm 3 mps 741 mmHg 94%
    10:00 +21°C° 0.1 mm 3 mps 741 mmHg 93%
    11:00 +22°C° 0.1 mm 3 mps 741 mmHg 92%
    12:00 +22°C° 0.2 mm 3 mps 741 mmHg 90%
    13:00 +24°C° 0.2 mm 3 mps 741 mmHg 87%
    14:00 +25°C° 0.2 mm 3 mps 741 mmHg 85%
    15:00 +25°C° 0.4 mm 3 mps 741 mmHg 84%
    16:00 +25°C° 0.4 mm 3 mps 741 mmHg 84%
    17:00 +25°C° 0.4 mm 3 mps 741 mmHg 83%
    18:00 +24°C° 0.5 mm 3 mps 741 mmHg 87%
    19:00 +22°C° 0.5 mm 3 mps 742 mmHg 91%
    20:00 +21°C° 0.5 mm 2 mps 742 mmHg 95%
    21:00 +21°C° 0.2 mm 2 mps 742 mmHg 96%
    22:00 +20°C° 0.2 mm 2 mps 742 mmHg 97%
    23:00 +20°C° 0.2 mm 2 mps 742 mmHg 98%
    Show more